Location: Newark
(7.0858°N, 171.3717°E)
Time: 13:44:43
(UTC+00:00)

Vanguard 1 Rocket - Pass Details

Date: 27 November 2020
Orbit: 655 x 4222 km, 34.3° (Epoch: 23 January)

Event Time Altitude Azimuth Distance (km) Brightness Sun altitude
Exits shadow 16:55:26 19° 320° (NW) 5,832 11.0 -22.8°
Maximum altitude 17:03:49 24° 349° (N) 4,779 10.7 -20.8°
Drops below altitude 10° 17:14:45 10° 39° (NE) 4,673 11.2 -18.3°
Sets 17:18:47 0° 54° (NE) 5,162 11.7 -17.3°
